Regional Weather Roundup
Issued by NWS

Home | Current Version | Previous Version | Graphics & Text | Print | Product List | Glossary Off
Versions: 1 2 3 4 5 6 7 8 9 10 11 12 13 14 15 16 17 18 19 20 21 22 23 24 25 26 27 28 29 30 31 32 33 34 35 36 37 38 39 40 41 42 43 44 45 46 47 48 49 50

000
ASUS43 KTOP 171659
RWRKS

WEATHER ROUNDUP FOR KANSAS
NATIONAL WEATHER SERVICE GOODLAND KS
1200 PM CDT WED SEP 17 2014

NOTE:  "FAIR" INDICATES FEW OR NO CLOUDS BELOW 12,000 FEET WITH NO
SIGNIFICANT WEATHER AND/OR OBSTRUCTIONS TO VISIBILITY.

KSZ001>006-013>018-027>032-041>047-171800-
NORTHWEST KANSAS

CITY           SKY/WX    TMP DP  RH WIND       PRES   REMARKS
$$

KSZ061>065-074>080-084>089-171800-
SOUTHWEST KANSAS

CITY           SKY/WX    TMP DP  RH WIND       PRES   REMARKS
DODGE CITY     MOSUNNY   82  61  48 SW6       29.94F
ELKHART          N/A     80  61  52 SW8         N/A
$$

KSZ066>073-081>083-090>101-171800-
SOUTHEAST KANSAS

CITY           SKY/WX    TMP DP  RH WIND       PRES   REMARKS
CHANUTE        MOSUNNY   84  71  65 SW13      29.90F
COFFEYVILLE    SUNNY     85  72  65 SW13G20   29.90F
HUTCHINSON     SUNNY     84  65  52 VRB3      29.90F
PARSONS        SUNNY     85  72  65 SW13      29.92F
$$

KSZ007>012-019>026-033>040-048>060-102>105-171800-
NORTHEAST KANSAS

CITY           SKY/WX    TMP DP  RH WIND       PRES   REMARKS
CONCORDIA      CLOUDY    72  66  83 E8        29.92F
LAWRENCE       CLOUDY    73  67  81 CALM      29.93S HAZE
MANHATTAN      CLOUDY    74  67  78 NE8       29.92S
TOPEKA BILLARD CLOUDY    72  68  88 CALM      29.93S
TOPEKA FORBES  CLOUDY    70  67  90 CALM      29.94R FOG
$$


USA.gov is the U.S. government's official web portal to all federal, state and local government web resources and services.